Flag for U.S.A. Weather past 2 weeks in Palo Alto, California, U.S.A.

Now
58 °F

Passing clouds.


Feels Like: 58 °F
Forecast: 56 / 74 °F
Wind: No wind

Location: Moffett Field

Current Time: Oct 23, 2014 at 5:51:51 AM

Latest Report: Oct 23, 2014 at 4:56 AM


Visibility: 10 mi

Pressure: 30.05 "Hg

Humidity: 90%

Dew point: 55 °F

Location of Palo AltoLocation

Historic Weather in Palo Alto — Graph

°F

Palo Alto temperature yesterday

Maximum temperature yesterday: 73 °F (at 2:56 PM)
Minimum temperature yesterday: 52 °F (at 6:56 AM)
Average temperature yesterday: 62 °F

Past Weeks' High & Low Weather Summary

 TemperatureHumidityPressure
High89 °F (Oct 12, 3:56 PM)100% (Oct 8, 7:56 AM)30.13 "Hg (Oct 8, 7:56 AM)
Low52 °F (Oct 22, 6:56 AM)11% (Oct 12, 4:56 PM)29.83 "Hg (Oct 14, 6:03 PM)
Average65 °F71%29.98 "Hg
* Reported Oct 8 4:56 AM — Oct 23 4:56 AM, Palo Alto, Weather by CustomWeather, © 2014

Note: Actual official high and low records may vary slightly from our data, if they occured in-between our weather recording intervals... More about our weather records

Advertising

Palo Alto weather history for previous 24 hours

 ConditionsComfort  
Time TempWeatherWind HumidityBarometerVisibility
4:56 AM
Oct 23
58 °FPassing clouds.No wind90%30.05 "Hg10 mi
3:56 AM58 °FClear.No wind90%30.04 "Hg10 mi
2:56 AM59 °FClear.No wind84%30.05 "Hg10 mi
1:56 AM59 °FClear.3 mph87%30.05 "Hg10 mi
12:56 AM61 °FClear.No wind83%30.05 "Hg10 mi
11:56 PM
Oct 22
63 °FClear.No wind81%30.06 "Hg10 mi
10:56 PM63 °FClear.No wind81%30.06 "Hg10 mi
9:56 PM64 °FClear.3 mph87%30.06 "Hg10 mi
8:56 PM64 °FClear.9 mph84%30.06 "Hg10 mi
7:56 PM65 °FClear.9 mph85%30.05 "Hg10 mi
6:56 PM66 °FSunny.7 mph75%30.04 "Hg10 mi
5:56 PM68 °FSunny.9 mph63%30.03 "Hg10 mi
4:56 PM73 °FSunny.7 mph46%30.02 "Hg10 mi
3:56 PM73 °FSunny.10 mph41%30.03 "Hg10 mi
2:56 PM73 °FSunny.8 mph41%30.04 "Hg10 mi
1:56 PM72 °FSunny.10 mph40%30.06 "Hg10 mi
12:56 PM70 °FSunny.12 mph44%30.08 "Hg10 mi
11:56 AM67 °FSunny.8 mph49%30.10 "Hg10 mi
10:56 AM66 °FSunny.3 mph59%30.09 "Hg10 mi
9:56 AM63 °FSunny.No wind63%30.09 "Hg10 mi
8:56 AM57 °FSunny.No wind78%30.08 "Hg10 mi
7:56 AM52 °FClear.3 mph89%30.06 "Hg10 mi
6:56 AM52 °FClear.No wind86%30.06 "Hg10 mi
5:56 AM53 °FClear.No wind83%30.06 "Hg10 mi
Weather by CustomWeather, © 2014

See weather overviewHow to use our weather pages